Year,Month,Day,Hour,Minute,Value (Times are PST for windspeed in km/hr)
2009,05,03,00,00,9.10
2009,05,03,00,01,9.60
2009,05,03,00,05,14.70
2009,05,03,00,06,12.50
2009,05,03,00,07,12.00
2009,05,03,00,08,13.40
2009,05,03,00,09,10.30
2009,05,03,00,10,13.20
2009,05,03,00,11,11.10
2009,05,03,00,12,8.50
2009,05,03,00,13,10.00
2009,05,03,00,14,9.80
2009,05,03,00,15,11.60
2009,05,03,00,16,9.00
2009,05,03,00,17,6.40
2009,05,03,00,18,11.30
2009,05,03,00,19,12.40
2009,05,03,00,20,9.00
2009,05,03,00,21,11.50
2009,05,03,00,22,16.20
2009,05,03,00,23,11.80
2009,05,03,00,24,14.20
2009,05,03,00,25,9.30
2009,05,03,00,26,16.40
2009,05,03,00,27,10.10
2009,05,03,00,28,14.20
2009,05,03,00,29,10.40
2009,05,03,00,30,10.20
2009,05,03,00,31,11.30
2009,05,03,00,32,8.60
2009,05,03,00,33,6.20
2009,05,03,00,34,10.90
2009,05,03,00,35,10.80
2009,05,03,00,36,9.20
2009,05,03,00,37,16.10
2009,05,03,00,38,10.40
2009,05,03,00,39,6.60
2009,05,03,00,40,8.00
2009,05,03,00,41,10.20
2009,05,03,00,42,9.70
2009,05,03,00,43,12.90
2009,05,03,00,44,14.20
2009,05,03,00,45,8.60
2009,05,03,00,46,9.80
2009,05,03,00,47,7.20
2009,05,03,00,48,8.90
2009,05,03,00,49,10.50
2009,05,03,00,50,11.50
2009,05,03,00,51,6.90
2009,05,03,00,52,8.90
2009,05,03,00,53,16.00
2009,05,03,00,54,8.60
2009,05,03,00,55,8.10
2009,05,03,00,56,6.10
2009,05,03,00,57,8.20
2009,05,03,00,58,9.90
2009,05,03,00,59,11.30
2009,05,03,01,00,9.70
2009,05,03,01,01,10.10
2009,05,03,01,02,10.60
2009,05,03,01,03,6.70
2009,05,03,01,04,7.30
2009,05,03,01,05,6.40
2009,05,03,01,06,6.80
2009,05,03,01,07,3.90
2009,05,03,01,08,11.30
2009,05,03,01,09,7.20
2009,05,03,01,10,4.70
2009,05,03,01,11,3.90
2009,05,03,01,12,6.50
2009,05,03,01,13,3.80
2009,05,03,01,14,5.90
2009,05,03,01,15,5.40
2009,05,03,01,16,6.70
2009,05,03,01,17,8.90
2009,05,03,01,18,6.60
2009,05,03,01,19,8.10
2009,05,03,01,20,8.60
2009,05,03,01,21,9.80
2009,05,03,01,22,6.40
2009,05,03,01,23,9.40
2009,05,03,01,24,10.30
2009,05,03,01,25,13.00
2009,05,03,01,26,7.50
2009,05,03,01,27,8.90
2009,05,03,01,28,8.70
2009,05,03,01,29,9.70
2009,05,03,01,30,3.10
2009,05,03,01,31,4.20
2009,05,03,01,32,7.30
2009,05,03,01,33,2.50
2009,05,03,01,34,3.40
2009,05,03,01,35,0.20
2009,05,03,01,36,5.90
2009,05,03,01,37,9.20
2009,05,03,01,38,8.70
2009,05,03,01,39,8.10
2009,05,03,01,40,1.40
2009,05,03,01,41,5.60
2009,05,03,01,42,6.90
2009,05,03,01,43,1.40
2009,05,03,01,44,5.60
2009,05,03,01,45,5.10
2009,05,03,01,46,1.80
2009,05,03,01,47,8.00
2009,05,03,01,48,2.80
2009,05,03,01,49,3.90
2009,05,03,01,50,6.30
2009,05,03,01,51,4.10
2009,05,03,01,52,9.20
2009,05,03,01,53,3.30
2009,05,03,01,54,4.90
2009,05,03,01,55,1.90
2009,05,03,01,56,3.80
2009,05,03,01,57,8.50
2009,05,03,01,58,1.80
2009,05,03,01,59,0.10
2009,05,03,02,00,0.80
2009,05,03,02,01,3.90
2009,05,03,02,02,2.70
2009,05,03,02,03,0.40
2009,05,03,02,04,2.30
2009,05,03,02,05,2.60
2009,05,03,02,06,0.00
2009,05,03,02,07,2.50
2009,05,03,02,08,5.20
2009,05,03,02,09,3.90
2009,05,03,02,10,8.50
2009,05,03,02,11,2.80
2009,05,03,02,12,0.00
2009,05,03,02,13,0.00
2009,05,03,02,14,0.00
2009,05,03,02,15,0.60
2009,05,03,02,16,3.20
2009,05,03,02,17,0.10
2009,05,03,02,18,4.80
2009,05,03,02,19,6.40
2009,05,03,02,20,3.10
2009,05,03,02,21,6.70
2009,05,03,02,22,8.00
2009,05,03,02,23,3.70
2009,05,03,02,24,7.60
2009,05,03,02,25,6.40
2009,05,03,02,26,3.80
2009,05,03,02,27,7.50
2009,05,03,02,28,5.40
2009,05,03,02,29,4.50
2009,05,03,02,30,1.50
2009,05,03,02,31,2.60
2009,05,03,02,32,8.70
2009,05,03,02,33,8.70
2009,05,03,02,34,3.00
2009,05,03,02,35,1.40
2009,05,03,02,36,4.20
2009,05,03,02,37,1.60
2009,05,03,02,38,1.30
2009,05,03,02,39,1.20
2009,05,03,02,40,1.70
2009,05,03,02,41,2.50
2009,05,03,02,42,0.40
2009,05,03,02,43,3.40
2009,05,03,02,44,2.00
2009,05,03,02,45,6.40
2009,05,03,02,46,5.80
2009,05,03,02,47,5.20
2009,05,03,02,48,3.40
2009,05,03,02,49,8.50
2009,05,03,02,50,1.70
2009,05,03,02,51,1.20
2009,05,03,02,52,0.00
2009,05,03,02,53,0.00
2009,05,03,02,54,1.20
2009,05,03,02,55,1.50
2009,05,03,02,56,3.00
2009,05,03,02,57,1.40
2009,05,03,02,58,1.40
2009,05,03,02,59,1.40
2009,05,03,03,00,3.30
2009,05,03,03,01,4.40
2009,05,03,03,02,4.40
2009,05,03,03,03,0.60
2009,05,03,03,04,4.80
2009,05,03,03,05,5.60
2009,05,03,03,06,2.30
2009,05,03,03,07,6.60
2009,05,03,03,08,2.00
2009,05,03,03,09,0.60
2009,05,03,03,10,4.70
2009,05,03,03,11,4.50
2009,05,03,03,12,3.70
2009,05,03,03,13,4.00
2009,05,03,03,14,5.90
2009,05,03,03,15,6.80
2009,05,03,03,16,3.60
2009,05,03,03,17,2.50
2009,05,03,03,18,4.90
2009,05,03,03,19,8.60
2009,05,03,03,20,3.30
2009,05,03,03,21,1.90
2009,05,03,03,22,3.60
2009,05,03,03,23,2.90
2009,05,03,03,24,8.40
2009,05,03,03,25,3.30
2009,05,03,03,26,10.90
2009,05,03,03,27,5.10
2009,05,03,03,28,2.40
2009,05,03,03,29,2.30
2009,05,03,03,30,0.00
2009,05,03,03,31,2.30
2009,05,03,03,32,1.10
2009,05,03,03,33,0.00
2009,05,03,03,34,0.00
2009,05,03,03,35,0.00
2009,05,03,03,36,0.00
2009,05,03,03,37,0.00
2009,05,03,03,38,0.00
2009,05,03,03,39,0.00
2009,05,03,03,40,3.60
2009,05,03,03,41,3.60
2009,05,03,03,42,3.00
2009,05,03,03,43,2.30
2009,05,03,03,44,2.30
2009,05,03,03,45,4.40
2009,05,03,03,46,3.00
2009,05,03,03,47,1.40
2009,05,03,03,48,0.00
2009,05,03,03,49,1.40
2009,05,03,03,50,3.50
2009,05,03,03,51,2.50
2009,05,03,03,52,3.00
2009,05,03,03,53,0.30
2009,05,03,03,54,0.00
2009,05,03,03,55,2.30
2009,05,03,03,56,5.30
2009,05,03,03,57,5.20
2009,05,03,03,58,5.40
2009,05,03,03,59,1.80
2009,05,03,04,00,1.70
2009,05,03,04,01,2.20
2009,05,03,04,02,0.00
2009,05,03,04,03,2.40
2009,05,03,04,04,2.80
2009,05,03,04,05,1.40
2009,05,03,04,06,1.90
2009,05,03,04,07,0.20
2009,05,03,04,08,3.60
2009,05,03,04,09,8.40
2009,05,03,04,10,7.20
2009,05,03,04,11,5.60
2009,05,03,04,12,4.90
2009,05,03,04,13,9.60
2009,05,03,04,14,6.80
2009,05,03,04,15,8.70
2009,05,03,04,16,5.40
2009,05,03,04,17,11.90
2009,05,03,04,18,7.30
2009,05,03,04,19,3.80
2009,05,03,04,20,5.60
2009,05,03,04,21,3.50
2009,05,03,04,22,6.40
2009,05,03,04,23,0.50
2009,05,03,04,24,0.00
2009,05,03,04,25,1.80
2009,05,03,04,26,7.30
2009,05,03,04,27,6.80
2009,05,03,04,28,3.50
2009,05,03,04,29,7.70
2009,05,03,04,30,8.10
2009,05,03,04,31,4.10
2009,05,03,04,32,3.80
2009,05,03,04,33,2.80
2009,05,03,04,34,0.00
2009,05,03,04,35,0.00
2009,05,03,04,36,9.30
2009,05,03,04,37,7.90
2009,05,03,04,38,4.20
2009,05,03,04,39,4.80
2009,05,03,04,40,7.90
2009,05,03,04,41,9.70
2009,05,03,04,42,4.90
2009,05,03,04,43,4.80
2009,05,03,04,44,3.10
2009,05,03,04,45,2.60
2009,05,03,04,46,0.00
2009,05,03,04,47,0.50
2009,05,03,04,48,9.30
2009,05,03,04,49,10.30
2009,05,03,04,50,11.50
2009,05,03,04,51,7.70
2009,05,03,04,52,4.90
2009,05,03,04,53,7.40
2009,05,03,04,54,0.70
2009,05,03,04,55,0.00
2009,05,03,04,56,5.20
2009,05,03,04,57,5.20
2009,05,03,04,58,5.30
2009,05,03,04,59,6.40
2009,05,03,05,00,3.10
2009,05,03,05,01,0.00
2009,05,03,05,02,2.10
2009,05,03,05,03,0.40
2009,05,03,05,04,8.50
2009,05,03,05,05,7.60
2009,05,03,05,06,6.30
2009,05,03,05,07,5.00
2009,05,03,05,08,6.50
2009,05,03,05,09,7.40
2009,05,03,05,10,6.70
2009,05,03,05,11,9.90
2009,05,03,05,12,9.10
2009,05,03,05,13,5.00
2009,05,03,05,14,4.00
2009,05,03,05,15,5.60
2009,05,03,05,16,7.00
2009,05,03,05,17,2.90
2009,05,03,05,18,3.00
2009,05,03,05,19,7.30
2009,05,03,05,20,9.90
2009,05,03,05,21,6.40
2009,05,03,05,22,4.70
2009,05,03,05,23,2.80
2009,05,03,05,24,0.30
2009,05,03,05,25,1.90
2009,05,03,05,26,10.50
2009,05,03,05,27,8.30
2009,05,03,05,28,8.60
2009,05,03,05,29,7.20
2009,05,03,05,30,5.10
2009,05,03,05,31,9.00
2009,05,03,05,32,11.50
2009,05,03,05,33,7.90
2009,05,03,05,34,4.30
2009,05,03,05,35,8.00
2009,05,03,05,36,3.00
2009,05,03,05,37,4.70
2009,05,03,05,38,4.10
2009,05,03,05,39,4.30
2009,05,03,05,40,4.60
2009,05,03,05,41,7.10
2009,05,03,05,42,2.00
2009,05,03,05,43,2.60
2009,05,03,05,44,3.00
2009,05,03,05,45,5.30
2009,05,03,05,46,6.70
2009,05,03,05,47,2.30
2009,05,03,05,48,0.90
2009,05,03,05,49,0.30
2009,05,03,05,50,3.20
2009,05,03,05,51,4.20
2009,05,03,05,52,4.40
2009,05,03,05,53,3.90
2009,05,03,05,54,1.80
2009,05,03,05,55,0.10
2009,05,03,05,56,1.00
2009,05,03,05,57,2.20
2009,05,03,05,58,3.60
2009,05,03,05,59,3.70
2009,05,03,06,00,4.80
2009,05,03,06,01,2.80
2009,05,03,06,02,1.90
2009,05,03,06,03,2.40
2009,05,03,06,04,2.10
2009,05,03,06,05,0.00
2009,05,03,06,06,0.60
2009,05,03,06,07,0.70
2009,05,03,06,08,0.20
2009,05,03,06,09,0.70
2009,05,03,06,10,3.10
2009,05,03,06,11,0.30
2009,05,03,06,12,0.50
2009,05,03,06,13,0.00
2009,05,03,06,14,0.00
2009,05,03,06,15,0.00
2009,05,03,06,16,0.00
2009,05,03,06,17,0.00
2009,05,03,06,18,3.00
2009,05,03,06,19,3.60
2009,05,03,06,20,2.90
2009,05,03,06,21,5.60
2009,05,03,06,22,7.00
2009,05,03,06,23,4.30
2009,05,03,06,24,2.90
2009,05,03,06,25,1.80
2009,05,03,06,26,6.30
2009,05,03,06,27,6.80
2009,05,03,06,28,1.70
2009,05,03,06,29,4.50
2009,05,03,06,30,4.50
2009,05,03,06,31,4.00
2009,05,03,06,32,7.30
2009,05,03,06,33,6.50
2009,05,03,06,34,1.40
2009,05,03,06,35,0.00
2009,05,03,06,36,1.20
2009,05,03,06,37,0.00
2009,05,03,06,38,0.70
2009,05,03,06,39,2.90
2009,05,03,06,40,2.40
2009,05,03,06,41,5.30
2009,05,03,06,42,3.30
2009,05,03,06,43,5.50
2009,05,03,06,44,7.10
2009,05,03,06,45,4.20
2009,05,03,06,46,2.10
2009,05,03,06,47,1.50
2009,05,03,06,48,2.40
2009,05,03,06,49,3.80
2009,05,03,06,50,1.70
2009,05,03,06,51,4.70
2009,05,03,06,52,2.90
2009,05,03,06,53,2.50
2009,05,03,06,54,1.90
2009,05,03,06,55,2.10
2009,05,03,06,56,0.10
2009,05,03,06,57,1.60
2009,05,03,06,58,2.10
2009,05,03,06,59,1.60
2009,05,03,07,00,0.00
2009,05,03,07,01,0.00
2009,05,03,07,02,1.50
2009,05,03,07,03,3.90
2009,05,03,07,04,4.30
2009,05,03,07,05,4.10
2009,05,03,07,06,5.40
2009,05,03,07,07,3.70
2009,05,03,07,08,4.30
2009,05,03,07,09,5.90
2009,05,03,07,10,5.30
2009,05,03,07,11,4.30
2009,05,03,07,12,2.80
2009,05,03,07,13,0.00
2009,05,03,07,14,0.00
2009,05,03,07,15,5.00
2009,05,03,07,16,4.40
2009,05,03,07,17,5.90
2009,05,03,07,18,3.00
2009,05,03,07,19,3.40
2009,05,03,07,20,2.40
2009,05,03,07,21,4.10
2009,05,03,07,22,1.90
2009,05,03,07,23,3.90
2009,05,03,07,24,5.90
2009,05,03,07,25,5.00
2009,05,03,07,26,7.00
2009,05,03,07,27,4.10
2009,05,03,07,28,3.90
2009,05,03,07,29,5.50
2009,05,03,07,30,7.60
2009,05,03,07,31,10.00
2009,05,03,07,32,8.90
2009,05,03,07,33,8.70
2009,05,03,07,34,10.30
2009,05,03,07,35,3.80
2009,05,03,07,36,5.50
2009,05,03,07,37,5.90
2009,05,03,07,38,3.40
2009,05,03,07,39,9.20
2009,05,03,07,40,13.60
2009,05,03,07,41,7.00
2009,05,03,07,42,8.80
2009,05,03,07,43,6.20
2009,05,03,07,44,11.70
2009,05,03,07,45,9.20
2009,05,03,07,46,9.40
2009,05,03,07,47,7.40
2009,05,03,07,48,7.90
2009,05,03,07,49,9.00
2009,05,03,07,50,11.00
2009,05,03,07,51,10.90
2009,05,03,07,52,9.70
2009,05,03,07,53,5.30
2009,05,03,07,54,3.60
2009,05,03,07,55,12.00
2009,05,03,07,56,7.60
2009,05,03,07,57,10.50
2009,05,03,07,58,7.30
2009,05,03,07,59,9.30
2009,05,03,08,00,8.30
2009,05,03,08,01,9.30
2009,05,03,08,02,8.40
2009,05,03,08,03,11.80
2009,05,03,08,04,9.00
2009,05,03,08,05,5.10
2009,05,03,08,06,8.80
2009,05,03,08,07,11.60
2009,05,03,08,08,9.00
2009,05,03,08,09,10.90
2009,05,03,08,10,8.30
2009,05,03,08,11,4.20
2009,05,03,08,12,7.20
2009,05,03,08,13,8.00
2009,05,03,08,14,6.80
2009,05,03,08,15,5.10
2009,05,03,08,16,8.10
2009,05,03,08,17,5.00
2009,05,03,08,18,2.00
2009,05,03,08,19,7.40
2009,05,03,08,20,11.00
2009,05,03,08,21,13.10
2009,05,03,08,22,11.10
2009,05,03,08,23,9.90
2009,05,03,08,24,8.10
2009,05,03,08,25,13.80
2009,05,03,08,26,9.00
2009,05,03,08,27,8.90
2009,05,03,08,28,8.60
2009,05,03,08,29,8.90
2009,05,03,08,30,10.30
2009,05,03,08,31,11.80
2009,05,03,08,32,10.60
2009,05,03,08,33,10.90
2009,05,03,08,34,5.20
2009,05,03,08,35,10.40
2009,05,03,08,36,9.20
2009,05,03,08,37,3.90
2009,05,03,08,38,11.40
2009,05,03,08,39,9.30
2009,05,03,08,40,14.50
2009,05,03,08,41,10.50
2009,05,03,08,42,7.00
2009,05,03,08,43,12.20
2009,05,03,08,44,15.10
2009,05,03,08,45,9.30
2009,05,03,08,46,11.60
2009,05,03,08,47,4.30
2009,05,03,08,48,5.90
2009,05,03,08,49,10.00
2009,05,03,08,50,4.20
2009,05,03,08,51,10.40
2009,05,03,08,52,13.10
2009,05,03,08,53,9.30
2009,05,03,08,54,12.90
2009,05,03,08,55,7.90
2009,05,03,08,56,7.90
2009,05,03,08,57,10.10
2009,05,03,08,58,9.80
2009,05,03,08,59,7.60
2009,05,03,09,00,15.10
2009,05,03,09,01,11.50
2009,05,03,09,02,13.20
2009,05,03,09,03,10.40
2009,05,03,09,04,9.10
2009,05,03,09,05,6.80
2009,05,03,09,06,9.10
2009,05,03,09,07,10.50
2009,05,03,09,08,12.40
2009,05,03,09,09,7.40
2009,05,03,09,10,15.00
2009,05,03,09,11,11.10
2009,05,03,09,12,11.30
2009,05,03,09,13,9.90
2009,05,03,09,14,5.10
2009,05,03,09,15,8.90
2009,05,03,09,16,10.60
2009,05,03,09,17,12.90
2009,05,03,09,18,9.30
2009,05,03,09,19,2.20
2009,05,03,09,20,10.60
2009,05,03,09,21,8.90
2009,05,03,09,22,10.90
2009,05,03,09,23,9.90
2009,05,03,09,24,11.60
2009,05,03,09,25,15.30
2009,05,03,09,26,13.00
2009,05,03,09,27,13.90
2009,05,03,09,28,14.20
2009,05,03,09,29,8.40
2009,05,03,09,30,10.20
2009,05,03,09,31,16.20
2009,05,03,09,32,12.80
2009,05,03,09,33,12.80
2009,05,03,09,34,10.60
2009,05,03,09,35,15.60
2009,05,03,09,36,7.00
2009,05,03,09,37,10.80
2009,05,03,09,38,18.30
2009,05,03,09,39,13.90
2009,05,03,09,40,13.50
2009,05,03,09,41,12.30
2009,05,03,09,42,16.30
2009,05,03,09,43,15.00
2009,05,03,09,44,9.00
2009,05,03,09,45,11.10
2009,05,03,09,46,15.60
2009,05,03,09,47,13.80
2009,05,03,09,48,15.00
2009,05,03,09,49,13.80
2009,05,03,09,50,12.40
2009,05,03,09,51,15.30
2009,05,03,09,52,16.00
2009,05,03,09,53,14.60
2009,05,03,09,54,10.90
2009,05,03,09,55,12.60
2009,05,03,09,56,10.60
2009,05,03,09,57,10.10
2009,05,03,09,58,13.60
2009,05,03,09,59,12.50
2009,05,03,10,00,13.90
2009,05,03,10,01,11.00
2009,05,03,10,02,15.00
2009,05,03,10,03,14.50
2009,05,03,10,04,11.10
2009,05,03,10,05,10.00
2009,05,03,10,06,12.00
2009,05,03,10,07,6.20
2009,05,03,10,08,11.00
2009,05,03,10,09,15.60
2009,05,03,10,10,9.80
2009,05,03,10,11,11.80
2009,05,03,10,12,10.50
2009,05,03,10,13,9.70
2009,05,03,10,14,5.90
2009,05,03,10,15,4.40
2009,05,03,10,16,8.00
2009,05,03,10,17,17.50
2009,05,03,10,18,8.90
2009,05,03,10,19,9.30
2009,05,03,10,20,7.70
2009,05,03,10,21,5.60
2009,05,03,10,22,6.60
2009,05,03,10,23,10.90
2009,05,03,10,24,15.60
2009,05,03,10,25,11.10
2009,05,03,10,26,10.70
2009,05,03,10,27,11.30
2009,05,03,10,28,8.00
2009,05,03,10,29,13.20
2009,05,03,10,30,15.20
2009,05,03,10,31,9.00
2009,05,03,10,32,7.60
2009,05,03,10,33,16.60
2009,05,03,10,34,12.60
2009,05,03,10,35,8.30
2009,05,03,10,36,4.70
2009,05,03,10,37,7.70
2009,05,03,10,38,12.20
2009,05,03,10,39,11.00
2009,05,03,10,40,14.00
2009,05,03,10,41,17.20
2009,05,03,10,42,14.60
2009,05,03,10,43,10.90
2009,05,03,10,44,7.60
2009,05,03,10,45,10.50
2009,05,03,10,46,7.00
2009,05,03,10,47,7.70
2009,05,03,10,48,6.60
2009,05,03,10,49,12.50
2009,05,03,10,50,6.00
2009,05,03,10,51,9.00
2009,05,03,10,52,11.80
2009,05,03,10,53,12.70
2009,05,03,10,54,10.90
2009,05,03,10,55,12.00
2009,05,03,10,56,12.90
2009,05,03,10,57,14.40
2009,05,03,10,58,8.40
2009,05,03,10,59,6.80
2009,05,03,11,00,1.20
2009,05,03,11,01,6.10
2009,05,03,11,02,6.10
2009,05,03,11,03,6.00
2009,05,03,11,04,11.90
2009,05,03,11,05,12.60
2009,05,03,11,06,13.50
2009,05,03,11,07,12.60
2009,05,03,11,08,12.20
2009,05,03,11,09,13.30
2009,05,03,11,10,14.70
2009,05,03,11,11,14.40
2009,05,03,11,12,9.60
2009,05,03,11,13,14.10
2009,05,03,11,14,13.80
2009,05,03,11,15,9.30
2009,05,03,11,16,11.30
2009,05,03,11,17,12.30
2009,05,03,11,18,7.90
2009,05,03,11,19,14.70
2009,05,03,11,20,14.40
2009,05,03,11,21,6.30
2009,05,03,11,22,6.90
2009,05,03,11,23,7.70
2009,05,03,11,24,7.70
2009,05,03,11,25,12.00
2009,05,03,11,26,10.90
2009,05,03,11,27,10.10
2009,05,03,11,28,9.40
2009,05,03,11,29,11.50
2009,05,03,11,30,10.50
2009,05,03,11,31,8.80
2009,05,03,11,32,10.20
2009,05,03,11,33,6.80
2009,05,03,11,34,7.10
2009,05,03,11,35,7.00
2009,05,03,11,36,9.70
2009,05,03,11,37,12.60
2009,05,03,11,38,8.60
2009,05,03,11,39,13.30
2009,05,03,11,40,11.00
2009,05,03,11,41,16.20
2009,05,03,11,42,14.20
2009,05,03,11,43,7.60
2009,05,03,11,44,9.70
2009,05,03,11,45,12.80
2009,05,03,11,46,8.80
2009,05,03,11,47,7.10
2009,05,03,11,48,7.40
2009,05,03,11,49,14.70
2009,05,03,11,50,14.60
2009,05,03,11,51,14.00
2009,05,03,11,52,14.10
2009,05,03,11,53,13.10
2009,05,03,11,54,11.60
2009,05,03,11,55,11.60
2009,05,03,11,56,14.90
2009,05,03,11,57,8.50
2009,05,03,11,58,10.10
2009,05,03,11,59,9.90
2009,05,03,12,00,8.80
2009,05,03,12,01,14.60
2009,05,03,12,02,17.90
2009,05,03,12,03,15.00
2009,05,03,12,04,14.80
2009,05,03,12,05,16.30
2009,05,03,12,06,14.10
2009,05,03,12,07,14.70
2009,05,03,12,08,17.40
2009,05,03,12,09,14.10
2009,05,03,12,10,14.60
2009,05,03,12,11,15.20
2009,05,03,12,12,7.60
2009,05,03,12,13,10.70
2009,05,03,12,14,15.90
2009,05,03,12,15,13.30
2009,05,03,12,16,18.00
2009,05,03,12,17,16.30
2009,05,03,12,18,20.70
2009,05,03,12,19,13.80
2009,05,03,12,20,15.60
2009,05,03,12,21,19.20
2009,05,03,12,22,17.40
2009,05,03,12,23,19.60
2009,05,03,12,24,13.90
2009,05,03,12,25,8.80
2009,05,03,12,26,14.10
2009,05,03,12,27,18.50
2009,05,03,12,28,18.90
2009,05,03,12,29,15.80
2009,05,03,12,30,13.00
2009,05,03,12,31,12.80
2009,05,03,12,32,11.70
2009,05,03,12,33,11.30
2009,05,03,12,34,8.80
2009,05,03,12,35,7.60
2009,05,03,12,36,11.80
2009,05,03,12,37,15.40
2009,05,03,12,38,9.20
2009,05,03,12,39,11.30
2009,05,03,12,40,13.60
2009,05,03,12,41,11.30
2009,05,03,12,42,16.60
2009,05,03,12,43,18.50
2009,05,03,12,44,15.40
2009,05,03,12,45,13.00
2009,05,03,12,46,18.50
2009,05,03,12,47,15.20
2009,05,03,12,48,14.50
2009,05,03,12,49,14.20
2009,05,03,12,50,16.80
2009,05,03,12,51,18.00
2009,05,03,12,52,13.10
2009,05,03,12,53,15.40
2009,05,03,12,54,9.70
2009,05,03,12,55,12.10
2009,05,03,12,56,18.60
2009,05,03,12,57,18.60
2009,05,03,12,58,13.00
2009,05,03,12,59,19.10
2009,05,03,13,00,17.40
2009,05,03,13,01,17.50
2009,05,03,13,02,16.10
2009,05,03,13,03,12.80
2009,05,03,13,04,12.90
2009,05,03,13,05,11.10
2009,05,03,13,06,11.80
2009,05,03,13,07,13.70
2009,05,03,13,08,13.40
2009,05,03,13,09,15.80
2009,05,03,13,10,16.60
2009,05,03,13,11,17.10
2009,05,03,13,12,13.70
2009,05,03,13,13,12.50
2009,05,03,13,14,16.30
2009,05,03,13,15,7.80
2009,05,03,13,16,14.20
2009,05,03,13,17,13.50
2009,05,03,13,18,14.30
2009,05,03,13,19,14.60
2009,05,03,13,20,17.10
2009,05,03,13,21,18.20
2009,05,03,13,22,15.70
2009,05,03,13,23,8.90
2009,05,03,13,24,14.50
2009,05,03,13,25,16.20
2009,05,03,13,26,19.50
2009,05,03,13,27,11.10
2009,05,03,13,28,13.50
2009,05,03,13,29,14.40
2009,05,03,13,30,11.70
2009,05,03,13,31,10.30
2009,05,03,13,32,10.90
2009,05,03,13,33,16.30
2009,05,03,13,34,20.00
2009,05,03,13,35,16.20
2009,05,03,13,36,15.90
2009,05,03,13,37,16.30
2009,05,03,13,38,12.30
2009,05,03,13,39,13.80
2009,05,03,13,40,15.70
2009,05,03,13,41,13.00
2009,05,03,13,42,11.90
2009,05,03,13,43,8.60
2009,05,03,13,44,11.10
2009,05,03,13,45,8.00
2009,05,03,13,46,13.20
2009,05,03,13,47,10.20
2009,05,03,13,48,12.80
2009,05,03,13,49,18.30
2009,05,03,13,50,17.40
2009,05,03,13,51,10.60
2009,05,03,13,52,9.70
2009,05,03,13,53,8.30
2009,05,03,13,54,13.40
2009,05,03,13,55,15.20
2009,05,03,13,56,8.90
2009,05,03,13,57,8.90
2009,05,03,13,58,12.20
2009,05,03,13,59,7.50
2009,05,03,14,00,12.20
2009,05,03,14,01,13.20
2009,05,03,14,02,15.80
2009,05,03,14,03,7.30
2009,05,03,14,04,7.30
2009,05,03,14,05,9.10
2009,05,03,14,06,6.00
2009,05,03,14,07,8.40
2009,05,03,14,08,5.50
2009,05,03,14,09,7.40
2009,05,03,14,10,5.30
2009,05,03,14,11,1.60
2009,05,03,14,12,6.80
2009,05,03,14,13,6.70
2009,05,03,14,14,4.70
2009,05,03,14,15,1.20
2009,05,03,14,16,0.00
2009,05,03,14,17,0.00
2009,05,03,14,18,1.00
2009,05,03,14,19,0.10
2009,05,03,14,20,1.40
2009,05,03,14,21,0.10
2009,05,03,14,22,0.00
2009,05,03,14,23,1.70
2009,05,03,14,24,3.70
2009,05,03,14,25,1.40
2009,05,03,14,26,0.00
2009,05,03,14,27,2.10
2009,05,03,14,28,2.60
2009,05,03,14,29,4.30
2009,05,03,14,30,2.20
2009,05,03,14,31,1.60
2009,05,03,14,32,4.50
2009,05,03,14,33,2.50
2009,05,03,14,34,3.10
2009,05,03,14,35,5.90
2009,05,03,14,36,5.60
2009,05,03,14,37,1.90
2009,05,03,14,38,0.80
2009,05,03,14,39,3.90
2009,05,03,14,40,4.90
2009,05,03,14,41,6.40
2009,05,03,14,42,7.70
2009,05,03,14,43,6.00
2009,05,03,14,44,4.20
2009,05,03,14,45,8.50
2009,05,03,14,46,8.20
2009,05,03,14,47,6.60
2009,05,03,14,48,5.70
2009,05,03,14,49,8.90
2009,05,03,14,50,10.00
2009,05,03,14,51,12.90
2009,05,03,14,52,9.50
2009,05,03,14,53,10.10
2009,05,03,14,54,8.00
2009,05,03,14,55,13.50
2009,05,03,14,56,15.90
2009,05,03,14,57,11.70
2009,05,03,14,58,9.70
2009,05,03,14,59,10.70
2009,05,03,15,00,7.90
2009,05,03,15,01,10.50
2009,05,03,15,02,8.90
2009,05,03,15,03,8.10
2009,05,03,15,04,2.60
2009,05,03,15,05,4.40
2009,05,03,15,06,9.20
2009,05,03,15,07,15.80
2009,05,03,15,08,14.50
2009,05,03,15,09,12.40
2009,05,03,15,10,12.40
2009,05,03,15,11,11.90
2009,05,03,15,12,14.60
2009,05,03,15,13,12.50
2009,05,03,15,14,11.10
2009,05,03,15,15,11.90
2009,05,03,15,16,11.90
2009,05,03,15,17,13.50
2009,05,03,15,18,9.00
2009,05,03,15,19,8.00
2009,05,03,15,20,12.60
2009,05,03,15,21,13.60
2009,05,03,15,22,13.80
2009,05,03,15,23,9.10
2009,05,03,15,24,11.80
2009,05,03,15,25,8.20
2009,05,03,15,26,8.70
2009,05,03,15,27,10.40
2009,05,03,15,28,6.60
2009,05,03,15,29,6.70
2009,05,03,15,30,8.10
2009,05,03,15,31,5.30
2009,05,03,15,32,8.90
2009,05,03,15,33,8.50
2009,05,03,15,34,11.00
2009,05,03,15,35,11.60
2009,05,03,15,36,10.70
2009,05,03,15,37,9.70
2009,05,03,15,38,6.10
2009,05,03,15,39,6.40
2009,05,03,15,40,8.80
2009,05,03,15,41,3.20
2009,05,03,15,42,8.00
2009,05,03,15,43,11.00
2009,05,03,15,44,7.70
2009,05,03,15,45,5.70
2009,05,03,15,46,7.10
2009,05,03,15,47,9.20
2009,05,03,15,48,9.60
2009,05,03,15,49,7.90
2009,05,03,15,50,5.80
2009,05,03,15,51,8.80
2009,05,03,15,52,5.60
2009,05,03,15,53,11.30
2009,05,03,15,54,7.50
2009,05,03,15,55,8.20
2009,05,03,15,56,4.10
2009,05,03,15,57,6.80
2009,05,03,15,58,8.70
2009,05,03,15,59,12.70
2009,05,03,16,00,7.50
2009,05,03,16,01,11.20
2009,05,03,16,02,11.40
2009,05,03,16,03,5.70
2009,05,03,16,04,8.80
2009,05,03,16,05,4.10
2009,05,03,16,06,5.60
2009,05,03,16,07,4.20
2009,05,03,16,08,7.70
2009,05,03,16,09,7.90
2009,05,03,16,10,9.70
2009,05,03,16,11,11.90
2009,05,03,16,12,11.70
2009,05,03,16,13,6.70
2009,05,03,16,14,4.70
2009,05,03,16,15,9.50
2009,05,03,16,16,7.40
2009,05,03,16,17,7.50
2009,05,03,16,18,11.80
2009,05,03,16,19,14.10
2009,05,03,16,20,11.40
2009,05,03,16,21,12.20
2009,05,03,16,22,12.90
2009,05,03,16,23,8.10
2009,05,03,16,24,7.40
2009,05,03,16,25,9.30
2009,05,03,16,26,10.10
2009,05,03,16,27,9.50
2009,05,03,16,28,10.50
2009,05,03,16,29,11.60
2009,05,03,16,30,12.50
2009,05,03,16,31,11.60
2009,05,03,16,32,11.50
2009,05,03,16,33,14.20
2009,05,03,16,34,11.40
2009,05,03,16,35,11.50
2009,05,03,16,36,8.90
2009,05,03,16,37,8.60
2009,05,03,16,38,11.00
2009,05,03,16,39,12.60
2009,05,03,16,40,7.60
2009,05,03,16,41,11.40
2009,05,03,16,42,7.90
2009,05,03,16,43,5.60
2009,05,03,16,44,3.90
2009,05,03,16,45,8.90
2009,05,03,16,46,6.30
2009,05,03,16,47,13.80
2009,05,03,16,48,11.60
2009,05,03,16,49,9.20
2009,05,03,16,50,7.20
2009,05,03,16,51,10.90
2009,05,03,16,52,10.90
2009,05,03,16,53,11.30
2009,05,03,16,54,10.40
2009,05,03,16,55,12.40
2009,05,03,16,56,15.20
2009,05,03,16,57,11.00
2009,05,03,16,58,12.10
2009,05,03,16,59,8.20
2009,05,03,17,00,3.10
2009,05,03,17,01,6.70
2009,05,03,17,02,9.20
2009,05,03,17,03,12.20
2009,05,03,17,04,9.70
2009,05,03,17,05,12.60
2009,05,03,17,06,6.00
2009,05,03,17,07,8.30
2009,05,03,17,08,10.80
2009,05,03,17,09,12.60
2009,05,03,17,10,10.80
2009,05,03,17,11,8.00
2009,05,03,17,12,10.40
2009,05,03,17,13,8.90
2009,05,03,17,14,5.70
2009,05,03,17,15,6.90
2009,05,03,17,16,10.80
2009,05,03,17,17,11.40
2009,05,03,17,18,13.60
2009,05,03,17,19,12.30
2009,05,03,17,20,7.20
2009,05,03,17,21,3.90
2009,05,03,17,22,9.20
2009,05,03,17,23,6.80
2009,05,03,17,24,8.40
2009,05,03,17,25,10.40
2009,05,03,17,26,15.40
2009,05,03,17,27,12.70
2009,05,03,17,28,12.10
2009,05,03,17,29,12.60
2009,05,03,17,30,14.00
2009,05,03,17,31,10.30
2009,05,03,17,32,12.40
2009,05,03,17,33,11.30
2009,05,03,17,34,13.40
2009,05,03,17,35,14.00
2009,05,03,17,36,12.20
2009,05,03,17,37,16.80
2009,05,03,17,38,11.30
2009,05,03,17,39,10.90
2009,05,03,17,40,11.80
2009,05,03,17,41,13.00
2009,05,03,17,42,10.00
2009,05,03,17,43,8.20
2009,05,03,17,44,7.10
2009,05,03,17,45,10.20
2009,05,03,17,46,10.90
2009,05,03,17,47,10.50
2009,05,03,17,48,7.10
2009,05,03,17,49,3.70
2009,05,03,17,50,4.70
2009,05,03,17,51,10.10